This demonstration page uses our WeatherBlox Daily Observations layout. Learn more.

Left ArrowRight Arrow

Hourly Observations for December 26, 2021

Temp ( °F °C ) Dew Point ( °F °C ) Humidity (%) Winds ( mph kmh ) Pressure ( in mb ) Visibility ( mi km ) Precip ( " mm )
12:09 am 00:09 Cloudy -1 -18.3 -7 -21.7 75 75 E 22 35 30.08 1019 10 16 0.00 0.00
12:53 am 00:53 Cloudy -1 -18.3 -7 -21.7 75 75 E 24 39 29.92 1013 10 16 0.00 0.00
1:53 am 01:53 Cloudy -2 -18.9 -7 -21.7 79 79 E 23 37 29.88 1012 10 16 0.00 0.00
2:38 am 02:38 Mostly Cloudy -2 -18.9 -7 -21.7 79 79 E 22 35 29.99 1016 7 11 0.00 0.00
2:53 am 02:53 Cloudy with Haze -2 -18.9 -7 -21.7 79 79 E 26 43 29.85 1011 5 8 0.00 0.00
3:17 am 03:17 Cloudy with Haze -2 -18.9 -7 -21.7 79 79 E 23 37 29.98 1015 5 8 0.00 0.00
3:41 am 03:41 Cloudy -1 -18.3 -7 -21.7 75 75 E 24 39 29.97 1015 8 13 0.00 0.00
3:50 am 03:50 Windy with Snow Likely -2 -19 -8 -22 77 77 E 23 37 29.97 1015 3 4 0.00 0.00
3:53 am 03:53 Windy with Snow Likely -2 -18.9 -7 -21.7 79 79 E 26 43 29.85 1011 3 4 0.00 0.00
4:07 am 04:07 Windy with Snow Likely -2 -18.9 -7 -21.7 79 79 E 23 37 29.97 1015 1 2 0.00 0.00
4:21 am 04:21 Mostly Cloudy with Light Snow -2 -18.9 -7 -21.7 79 79 E 24 39 29.97 1015 1 2 0.01 0.25
4:36 am 04:36 Windy with Snow Likely -2 -18.9 -8 -22.2 75 75 E 23 37 29.96 1015 2 2 0.02 0.51
4:44 am 04:44 Mostly Cloudy with Light Snow -2 -19 -8 -22 77 77 E 26 43 29.95 1014 1 2 0.00 0.00
4:53 am 04:53 Mostly Cloudy with Light Snow -3 -19.4 -8 -22.2 79 79 E 23 37 29.82 1010 1 1 0.02 0.51
5:00 am 05:00 Mostly Cloudy with Light Snow -2 -19 -8 -22 77 77 E 23 37 29.94 1014 1 2 0.00 0.00
5:13 am 05:13 Windy with Snow Likely -3 -19.4 -9 -22.8 75 75 E 24 39 29.95 1014 2 2 0.00 0.00
5:25 am 05:25 Cloudy with Light Snow -3 -19.4 -9 -22.8 75 75 E 18 30 29.96 1015 3 5 0.01 0.25
5:39 am 05:39 Cloudy with Light Snow -3 -19.4 -9 -22.8 75 75 E 18 30 29.97 1015 5 8 0.01 0.25
5:53 am 05:53 Cloudy -3 -19.4 -10 -23.3 71 71 E 17 28 29.82 1010 10 16 0.01 0.25
6:38 am 06:38 Windy with Snow Likely -4 -20 -9 -23 77 77 E 21 33 29.98 1015 3 4 0.00 0.00
6:49 am 06:49 Cloudy with Light Snow -4 -20 -9 -23 77 77 E 18 30 29.98 1015 4 6 0.00 0.00
6:53 am 06:53 Cloudy with Light Snow -4 -20 -10 -23.3 75 75 E 16 26 29.84 1010 4 6 0.00 0.00
7:11 am 07:11 Windy with Snow Likely -4 -20 -11 -23.9 71 71 E 20 31 29.98 1015 3 5 0.00 0.00
7:15 am 07:15 Cloudy with Light Snow -5 -20.6 -11 -23.9 75 75 E 18 30 29.98 1015 2 3 0.00 0.00
7:18 am 07:18 Cloudy with Light Snow -5 -20.6 -10 -23.3 79 79 E 17 28 29.98 1015 1 2 0.00 0.00
7:27 am 07:27 Mostly Cloudy with Light Snow -5 -20.6 -10 -23.3 79 79 E 16 26 29.98 1015 1 1 0.01 0.25
7:36 am 07:36 Cloudy with Light Snow -5 -20.6 -11 -23.9 75 75 E 16 26 29.97 1015 1 2 0.01 0.25
7:53 am 07:53 Cloudy with Light Snow -5 -20.6 -10 -23.3 79 79 ENE 13 20 29.83 1010 2 3 0.02 0.51
8:02 am 08:02 Mostly Cloudy with Light Snow -5 -20.6 -10 -23.3 79 79 ENE 15 24 29.97 1015 1 1 0.00 0.00
8:20 am 08:20 Mostly Cloudy with Light Snow -6 -21 -9 -23 84 84 E 17 28 29.99 1016 1 1 0.00 0.00
8:31 am 08:31 Mostly Cloudy with Snow -5 -20.6 -10 -23.3 79 79 ENE 14 22 29.97 1015 1 1 0.02 0.51
8:50 am 08:50 Mostly Cloudy with Snow -6 -21 -9 -23 84 84 ENE 15 24 29.98 1015 0 0 0.00 0.00
8:51 am 08:51 Mostly Cloudy with Snow -5 -20.6 -9 -22.8 83 83 ENE 15 24 29.83 1010 0 0 0.04 1.02
9:17 am 09:17 Mostly Cloudy with Snow -4 -20 -9 -22.8 79 79 ENE 13 20 29.98 1015 1 1 0.03 0.76
9:25 am 09:25 Mostly Cloudy with Light Snow -4 -20 -9 -22.8 79 79 NE 12 19 29.98 1015 1 2 0.03 0.76
9:53 am 09:53 Cloudy with Light Snow -4 -20 -9 -22.8 79 79 NE 9 15 29.86 1011 1 2 0.04 1.02
10:21 am 10:21 Mostly Cloudy with Light Snow -5 -20.6 -10 -23.3 79 79 NE 12 19 30.00 1016 1 1 0.00 0.00
10:41 am 10:41 Cloudy with Light Snow -5 -20.6 -10 -23.3 79 79 NE 13 20 30.01 1016 1 2 0.01 0.25
10:53 am 10:53 Cloudy with Light Snow -5 -20.6 -11 -23.9 75 75 NE 12 19 29.88 1012 2 2 0.01 0.25
11:06 am 11:06 Cloudy with Light Snow -5 -20.6 -10 -23.3 79 79 NE 10 17 30.01 1016 1 2 0.00 0.00
11:19 am 11:19 Cloudy with Light Snow -5 -20.6 -11 -23.9 75 75 NNE 10 17 30.01 1016 2 3 0.01 0.25
11:53 am 11:53 Cloudy with Light Snow -5 -20.6 -12 -24.4 72 72 NNE 10 17 29.88 1012 3 5 0.01 0.25
12:14 pm 12:14 Cloudy with Light Snow -6 -21 -11 -24 77 77 NNE 10 17 30.02 1017 2 3 0.00 0.00
12:24 pm 12:24 Cloudy with Light Snow -6 -21.1 -13 -25 71 71 NE 9 15 30.01 1016 2 3 0.00 0.00
12:37 pm 12:37 Cloudy with Light Snow -5 -20.6 -12 -24.4 72 72 NNE 9 15 30.04 1017 3 4 0.00 0.00
12:45 pm 12:45 Cloudy with Light Snow -5 -20.6 -12 -24.4 72 72 N 6 9 30.04 1017 4 6 0.00 0.00
12:53 pm 12:53 Cloudy with Light Snow -5 -20.6 -13 -25 68 68 NE 7 11 29.90 1013 5 8 0.00 0.00
1:00 pm 13:00 Cloudy with Haze -5 -20.6 -12 -24.4 72 72 N 8 13 30.05 1017 6 10 0.00 0.00
1:30 pm 13:30 Cloudy -6 -21 -13 -25 70 70 NNW 8 13 30.06 1018 9 14 0.00 0.00
1:53 pm 13:53 Cloudy -6 -21.1 -14 -25.6 67 67 NNW 9 15 29.92 1013 10 16 0.00 0.00
2:53 pm 14:53 Partly Cloudy -5 -20.6 -13 -25 68 68 NW 6 9 29.94 1014 10 16 0.00 0.00
3:28 pm 15:28 Mostly Cloudy with Light Snow -7 -21.7 -13 -25 75 75 WNW 18 30 30.13 1020 2 3 0.00 0.00
3:38 pm 15:38 Cloudy with Haze -7 -21.7 -14 -25.6 71 71 WNW 17 28 30.14 1021 3 5 0.00 0.00
3:53 pm 15:53 Mostly Cloudy -8 -22.2 -15 -26.1 71 71 WNW 17 28 30.00 1016 9 14 0.00 0.00
4:02 pm 16:02 Partly Cloudy -8 -22.2 -16 -26.7 67 67 NW 16 26 30.17 1022 10 16 0.00 0.00
4:53 pm 16:53 Mostly Cloudy -9 -22.8 -15 -26.1 75 75 WNW 15 24 30.04 1017 10 16 0.00 0.00
5:08 pm 17:08 Cloudy -9 -22.8 -16 -26.7 71 71 WNW 15 24 30.20 1023 10 16 0.00 0.00
5:25 pm 17:25 Cloudy -10 -23.3 -17 -27.2 70 70 WNW 18 30 30.21 1023 10 16 0.00 0.00
5:53 pm 17:53 Cloudy -10 -23.3 -18 -27.8 67 67 WNW 18 30 30.06 1018 9 14 0.00 0.00
6:13 pm 18:13 Cloudy -10 -23.3 -18 -27.8 67 67 WNW 20 31 30.23 1024 10 16 0.00 0.00
6:45 pm 18:45 Cloudy with Haze -10 -23.3 -17 -27.2 70 70 NNW 16 26 30.24 1024 3 4 0.00 0.00
6:53 pm 18:53 Cloudy -11 -23.9 -18 -27.8 70 70 NW 13 20 30.09 1019 7 11 0.00 0.00
7:15 pm 19:15 Partly Cloudy -13 -25 -20 -28.9 70 70 NW 7 11 30.29 1026 10 16 0.00 0.00
7:53 pm 19:53 Clear -16 -26.7 -22 -30 74 74 W 3 6 30.14 1021 10 16 0.00 0.00
8:53 pm 20:53 Clear -19 -28.3 -25 -31.7 73 73 WSW 6 9 30.16 1022 10 16 0.00 0.00
9:53 pm 21:53 Clear -21 -29.4 -27 -32.8 72 72 W 7 11 30.18 1022 10 16 0.00 0.00
10:53 pm 22:53 Clear -19 -28.3 -25 -31.7 73 73 WSW 7 11 30.17 1022 10 16 0.00 0.00
11:53 pm 23:53 Clear -21 -29.4 -26 -32.2 77 77 WSW 12 19 30.19 1022 10 16 0.00 0.00

Powered by AerisWeather